Wind_Speed
26 26 27 29 29 29 29 29 31 34 36 34 34 34 33 30 29 28 28 29 30 32 32 31 30 29 26 25 26 25 25 26 27 26 26 24 23 23 23 23 23 23 22 22 21 21 21 21 21 21 21 21 22 22 22 22 22 23 23 23 23 22 22 21 21 21 21 21 20 19 19 19 19 19 19 18 17 16 16 16 17 18 18 19 19
25 26 28 30 30 30 29 29 29 31 33 33 33 34 32 29 28 28 29 30 30 32 33 32 31 30 27 27 28 26 26 27 27 27 26 25 24 24 24 24 24 23 23 22 22 22 22 22 22 21 21 22 22 22 21 21 21 22 22 21 21 21 21 21 21 21 22 21 20 20 19 20 20 20 19 18 18 17 17 17 18 19 20 21 21
24 25 28 31 31 30 29 28 28 29 29 31 32 33 31 29 28 28 30 31 31 32 33 32 32 31 29 30 30 27 26 27 28 27 26 26 26 25 25 25 25 24 24 23 23 22 22 22 22 22 23 23 21 20 20 21 21 21 22 21 20 21 21 21 22 22 22 21 20 19 18 19 20 19 19 19 19 19 18 18 19 20 22 22 23
23 25 27 29 30 30 28 27 27 27 27 28 30 31 30 29 28 29 31 32 32 33 32 32 32 32 31 32 32 29 27 28 28 28 27 27 27 26 26 26 25 25 24 24 23 23 23 22 22 22 23 23 21 20 21 21 21 21 21 21 21 22 22 21 22 21 20 20 19 17 17 18 18 19 19 19 19 19 20 20 21 22 23 23 24
23 24 26 27 29 29 28 26 26 26 26 26 27 27 29 29 28 30 32 33 33 33 32 32 32 31 32 33 32 30 28 28 27 28 28 28 27 27 27 26 26 26 25 24 24 23 23 23 22 22 23 23 21 21 21 22 22 21 21 22 22 21 21 21 21 20 19 19 19 17 17 17 18 19 20 20 20 21 21 21 22 23 24 25 26
22 23 25 26 28 29 28 27 26 26 25 25 25 24 25 27 28 30 32 32 33 32 32 32 31 31 32 33 32 30 29 28 28 28 29 28 28 27 27 27 26 26 26 25 25 24 23 23 23 23 23 23 22 21 22 22 21 21 22 22 21 21 21 21 20 20 19 20 19 19 18 18 19 20 21 21 22 22 22 23 24 24 25 26 26
22 22 24 26 27 28 29 28 27 26 25 24 24 22 22 25 27 29 31 31 31 31 31 31 30 31 32 32 32 31 29 28 28 29 29 28 28 27 27 27 27 27 27 26 25 25 24 24 24 24 24 24 24 22 22 22 21 21 22 22 21 20 20 21 20 20 20 21 21 21 20 20 20 22 23 23 23 23 24 24 25 25 26 26 26
23 23 24 26 26 27 28 28 28 27 25 23 21 19 21 25 27 28 29 30 29 29 30 30 30 30 32 32 31 31 30 29 29 29 29 29 28 28 28 28 28 27 27 27 26 25 25 25 25 25 25 25 24 23 22 22 22 22 22 22 21 20 20 21 21 22 23 23 23 23 22 22 22 23 24 25 25 24 25 25 25 26 26 27 27
25 25 25 26 27 27 28 29 28 27 26 23 19 17 21 24 25 26 28 29 28 28 30 30 29 31 32 32 31 30 30 29 29 30 30 30 30 30 29 29 29 28 28 27 26 26 26 26 26 26 26 26 25 24 23 23 23 23 23 23 23 22 21 20 20 22 24 24 24 24 23 23 23 23 25 26 26 25 25 26 27 27 28 29 30
27 26 25 26 27 27 27 28 29 28 26 24 18 16 21 23 24 25 26 27 26 26 28 29 30 31 32 31 30 30 29 29 30 30 30 31 31 31 31 30 30 29 28 27 27 27 27 27 27 26 26 27 26 25 25 25 24 24 24 24 24 24 23 21 22 25 26 26 26 25 24 24 24 24 25 26 26 26 26 27 28 29 30 31 32
27 26 26 26 27 27 27 27 28 28 27 25 20 15 20 24 25 26 27 26 25 26 28 30 31 31 32 31 30 29 29 29 30 31 31 32 32 32 31 31 30 29 28 27 27 27 28 28 28 27 27 28 28 27 26 26 25 25 25 25 25 24 23 22 23 25 26 27 27 26 26 26 26 26 27 27 27 28 28 29 30 30 31 32 34
28 26 26 26 26 26 26 26 26 27 27 26 23 17 17 23 27 29 28 27 27 29 29 31 32 32 32 32 32 31 30 30 31 31 32 32 32 32 31 30 30 29 28 28 28 28 28 28 28 28 28 28 28 28 28 27 26 26 26 25 25 25 24 24 24 24 25 27 28 29 29 29 28 28 28 28 29 30 30 31 31 32 32 34 35
28 28 26 26 26 26 25 25 25 26 26 26 25 21 16 18 23 28 29 28 29 31 31 31 33 33 33 33 33 33 32 32 31 31 32 32 32 31 31 31 31 30 30 30 29 29 29 29 29 29 29 29 29 29 28 28 27 26 26 26 26 26 25 25 25 24 25 27 29 30 30 30 29 29 29 30 31 32 32 33 33 34 34 36 37
29 29 27 26 26 26 26 25 24 25 25 25 25 23 20 17 17 21 26 28 29 31 32 32 33 33 34 35 35 35 34 33 32 32 32 32 31 30 31 31 31 32 32 31 31 31 31 31 30 29 29 29 29 29 28 28 27 26 26 26 26 26 26 25 25 24 24 26 31 33 31 31 32 32 32 33 34 35 35 35 35 36 37 38 39
30 30 29 28 27 28 27 26 25 24 24 25 25 24 23 21 19 19 21 25 28 31 32 33 33 34 35 36 37 37 36 34 33 33 31 30 29 30 32 32 32 33 34 34 33 33 33 32 31 30 30 30 30 30 29 29 28 27 28 28 28 28 27 26 26 25 23 24 29 32 33 33 34 36 36 37 37 37 37 38 38 39 40 41 42
30 30 30 30 29 30 30 28 26 25 24 24 25 26 25 24 23 21 21 23 26 30 32 34 35 35 36 38 39 39 38 36 35 34 33 31 32 32 33 34 35 34 35 36 36 35 35 34 33 32 32 31 31 32 31 31 31 31 31 31 30 29 28 28 28 27 26 26 28 31 33 34 35 37 38 39 39 39 39 40 40 41 42 43 44
32 31 31 30 30 31 31 31 29 27 26 25 25 26 27 26 25 24 24 25 26 28 30 33 35 35 36 39 41 41 41 40 39 39 39 39 37 35 34 35 37 37 37 37 38 38 37 36 35 34 33 33 34 33 33 33 34 34 35 34 33 31 31 30 30 31 32 32 34 36 38 38 38 38 39 39 40 41 42 42 43 43 44 45 45
36 35 33 32 31 31 31 32 31 30 28 27 26 26 27 28 27 27 27 27 27 29 29 30 33 35 36 37 38 38 40 41 41 42 42 40 39 37 36 36 37 38 39 39 39 40 39 38 37 35 35 34 34 34 35 35 35 35 36 36 35 34 33 33 33 34 35 34 35 36 37 38 39 38 39 40 41 42 42 42 43 44 43 42 43
39 39 38 37 35 33 32 32 33 32 31 30 28 27 27 28 29 29 29 29 29 30 30 30 32 33 36 38 38 38 38 38 38 39 39 38 38 37 37 36 35 37 38 39 40 41 41 40 39 38 36 35 34 34 35 36 36 36 37 37 36 36 35 35 35 36 37 36 35 35 35 36 38 37 38 40 42 42 41 39 39 40 39 37 39
39 39 40 40 38 36 34 33 33 33 33 32 31 30 29 29 30 31 31 31 31 31 31 32 32 33 34 37 39 40 39 38 37 37 38 37 37 37 36 36 36 36 38 39 41 41 42 42 41 40 39 37 36 35 35 35 37 37 38 38 38 38 38 38 38 39 39 38 39 39 39 40 41 41 41 43 44 44 43 39 39 41 42 42 44
42 41 41 41 41 39 37 35 34 34 34 33 33 33 32 31 31 32 32 33 33 33 33 34 34 34 34 35 37 39 39 39 39 40 41 41 40 39 38 38 38 38 38 40 42 43 43 43 42 42 42 40 38 37 36 36 36 37 38 38 39 39 39 39 40 41 41 41 41 42 43 44 45 46 46 47 48 48 48 47 47 48 49 50 51
44 44 44 43 43 42 40 38 36 35 34 34 34 34 34 33 33 33 34 34 34 34 35 35 36 36 36 36 37 37 38 41 43 43 44 45 46 45 44 42 41 41 41 43 45 45 44 43 42 42 41 41 40 39 39 38 37 38 38 39 39 39 39 40 41 42 43 44 44 44 44 45 46 46 48 49 50 50 51 52 52 53 53 54 54
44 44 45 45 45 45 44 42 39 37 35 35 35 36 35 35 35 34 35 35 35 36 36 36 37 37 38 38 38 38 39 41 43 43 42 46 49 50 50 49 47 45 46 47 48 48 46 45 44 44 42 41 41 40 40 40 39 39 39 39 39 39 40 41 43 43 45 46 46 46 46 45 46 47 49 50 51 52 52 53 53 54 54 55 55
42 43 44 45 46 46 45 45 43 41 38 36 36 37 37 37 36 36 36 36 37 37 37 37 37 38 39 39 39 40 41 41 41 41 41 44 49 51 51 51 49 46 46 48 48 47 46 46 46 46 45 45 44 42 41 41 40 40 39 39 39 39 41 42 43 45 46 47 47 47 47 47 48 49 50 51 51 52 52 53 54 54 55 55 56
40 41 42 43 44 44 44 44 43 42 41 39 38 38 38 39 38 37 37 37 38 38 38 39 39 38 39 40 40 41 42 41 40 40 38 41 47 51 51 51 49 44 43 45 46 44 43 44 45 44 44 45 44 43 42 41 41 40 39 39 39 40 42 43 44 46 47 47 48 49 49 49 49 49 49 50 50 51 53 54 55 55 56 56 56
37 38 39 41 42 43 43 43 43 42 42 40 39 39 39 39 39 39 39 38 39 39 39 40 40 40 40 41 41 41 42 41 40 39 36 37 43 48 49 50 51 47 45 45 45 44 42 42 42 42 42 43 43 43 43 42 41 40 39 39 39 40 42 44 45 46 47 47 47 47 47 48 48 48 49 49 50 51 53 55 56 56 55 55 55
35 36 37 38 40 41 42 42 42 42 41 40 40 39 39 39 40 40 41 40 40 41 41 41 40 40 41 42 42 41 42 42 40 37 35 35 38 41 44 46 48 48 48 47 47 45 44 42 42 41 41 42 43 44 44 43 43 42 42 42 42 43 45 46 47 46 46 46 45 45 46 47 48 49 50 51 52 52 54 55 56 56 55 54 55
37 37 37 37 37 38 40 40 41 41 40 39 39 39 39 39 39 40 40 41 41 42 42 42 42 42 41 42 42 41 41 41 39 37 35 35 35 37 41 44 45 45 47 48 48 46 45 45 44 44 43 43 44 44 45 46 46 47 47 47 46 45 46 49 51 49 46 46 46 47 47 48 49 51 52 53 53 54 54 55 55 54 53 53 54
38 38 38 38 38 38 39 40 40 40 40 39 39 38 38 39 39 39 39 40 41 42 43 43 44 43 42 42 42 41 40 38 38 37 35 35 35 37 40 44 46 46 46 46 45 45 44 44 46 47 47 47 47 47 47 48 49 50 50 50 49 48 46 49 52 53 50 50 51 50 50 51 52 51 51 50 50 50 51 51 52 52 52 53 53
36 37 38 39 40 40 41 41 41 41 41 40 40 39 39 39 39 39 39 39 40 41 42 43 43 44 44 43 42 41 40 38 37 37 35 34 35 36 37 40 45 48 47 45 44 43 43 44 46 48 49 50 50 49 48 48 48 49 49 50 51 50 48 47 50 54 56 57 55 53 54 55 53 49 48 48 49 49 51 51 52 52 52 53 54
33 35 36 37 38 40 41 42 43 43 43 43 42 41 40 39 39 40 40 40 40 41 41 42 42 43 43 43 42 41 40 38 36 35 35 35 35 37 36 36 39 44 46 45 45 45 45 46 48 50 51 51 50 49 47 46 47 48 49 49 49 49 49 49 50 53 56 58 57 55 56 56 52 49 49 50 50 51 51 51 51 52 54 56 59
32 33 34 34 35 37 38 40 42 43 45 45 45 44 43 41 40 40 40 41 42 42 42 42 42 41 41 42 41 40 40 39 37 36 36 36 36 36 37 36 36 38 40 42 44 45 47 48 50 51 51 51 50 49 48 48 49 50 51 51 50 50 51 53 55 57 58 58 57 56 54 52 49 47 48 48 48 49 51 52 53 55 57 58 58
30 31 32 33 34 35 35 37 38 40 42 44 45 46 46 45 43 42 41 41 42 42 43 43 43 42 41 41 41 41 40 40 40 39 39 38 37 36 37 37 37 37 38 40 42 44 46 48 49 50 51 51 52 52 52 52 51 51 52 53 52 51 51 53 56 59 59 57 54 51 49 46 45 45 46 46 48 49 51 53 55 57 58 57 56
28 29 30 31 32 33 34 35 36 37 39 41 42 44 45 46 46 45 44 43 43 42 42 43 44 44 43 42 41 41 42 42 42 42 42 41 40 39 39 39 38 38 39 40 41 42 44 45 47 48 49 50 51 52 52 52 51 51 51 52 51 49 48 49 50 51 51 50 49 48 48 47 46 46 47 49 51 53 55 57 58 57 56 54 52
27 28 28 28 29 30 31 33 34 35 36 38 39 41 43 44 45 45 45 45 44 44 43 43 43 44 44 43 42 42 43 43 42 42 41 41 40 40 40 40 40 39 39 38 38 38 39 40 40 41 42 43 43 44 45 45 45 46 47 48 47 46 46 46 46 47 47 48 49 50 50 50 50 51 52 54 55 56 56 55 53 51 49 48 47
27 27 27 27 27 27 28 28 30 31 33 34 36 38 39 41 42 43 44 45 45 45 45 45 44 44 44 44 44 44 43 42 42 42 41 40 39 39 39 40 39 39 38 37 36 36 36 36 36 37 37 37 37 37 38 38 39 40 42 44 45 45 45 46 46 47 48 50 51 52 53 53 54 54 53 53 52 50 48 47 45 45 44 45 45
26 27 27 28 28 27 27 26 26 27 28 29 31 33 35 37 39 40 41 43 44 45 46 46 45 45 45 45 45 44 44 43 43 43 43 42 42 41 41 40 40 39 38 37 37 36 36 36 36 35 35 35 35 35 35 36 36 38 39 41 43 44 45 45 46 47 48 49 50 50 50 50 49 48 46 45 44 43 42 42 42 42 43 43 44
27 28 28 29 29 29 28 27 26 25 25 26 26 28 30 32 34 36 37 39 41 43 44 45 45 45 45 45 45 44 44 44 44 44 44 44 45 45 44 43 42 41 41 40 39 38 37 36 36 36 36 36 36 36 36 37 37 38 39 41 42 43 44 44 45 45 45 45 45 44 43 42 42 41 40 40 40 39 39 40 40 41 42 42 43
30 30 30 31 31 31 30 28 27 26 25 25 25 25 26 27 29 31 33 34 36 38 41 43 44 45 45 45 45 44 44 44 43 43 44 44 44 44 44 44 44 43 42 42 41 40 38 37 37 36 37 37 37 38 38 39 39 40 40 40 41 41 42 42 42 42 41 41 40 40 39 39 38 38 38 38 38 38 38 39 40 40 41 42 43
32 32 33 33 33 32 31 30 29 27 26 26 25 25 24 24 25 27 28 30 31 33 35 38 41 43 43 44 44 44 44 44 43 43 43 43 42 42 42 42 42 42 41 41 41 41 40 39 38 37 37 37 37 38 39 39 40 40 41 41 41 40 40 40 39 39 38 37 37 36 36 36 36 36 36 36 36 37 38 38 39 40 41 42 44
34 34 35 35 35 34 33 31 30 28 26 25 25 25 24 23 23 24 25 26 27 29 30 33 36 38 41 42 42 42 42 43 43 43 42 42 41 41 40 39 39 39 38 38 38 38 39 39 39 38 38 37 37 37 37 38 38 39 39 40 40 40 39 39 38 37 37 36 35 35 34 34 34 34 35 35 36 36 37 38 39 40 42 43 43
35 35 36 36 36 36 35 33 32 30 27 25 23 23 23 23 22 22 22 23 24 25 26 28 30 32 35 38 39 39 40 40 41 41 41 41 40 40 39 38 37 37 36 36 36 36 36 36 36 37 37 36 36 36 36 36 36 36 36 36 36 36 36 35 35 34 33 33 32 32 32 32 33 33 34 35 35 36 37 38 39 39 40 40 40
36 36 37 37 37 37 36 35 33 32 30 27 24 22 21 21 20 20 21 21 21 22 23 24 26 27 29 31 34 35 36 36 37 38 39 39 39 39 38 37 37 36 36 35 34 34 33 33 34 34 34 34 34 34 34 33 33 33 32 32 31 31 30 30 30 29 29 29 30 30 30 31 31 32 33 33 34 34 35 36 36 36 36 36 36
37 37 37 38 37 37 37 36 34 32 30 28 25 23 21 20 18 18 19 19 20 20 20 21 23 24 25 26 28 30 31 32 33 35 36 36 37 37 37 36 36 36 35 35 34 33 33 32 32 32 32 32 32 32 32 31 30 30 29 29 28 28 27 27 27 27 27 27 28 28 28 29 29 29 30 31 31 32 33 33 34 34 34 34 34
38 38 38 38 38 38 37 36 34 32 30 27 25 23 22 21 19 17 17 18 18 18 19 20 20 21 22 23 24 25 26 28 29 31 32 33 34 34 34 34 34 34 34 34 33 33 32 31 31 30 30 30 30 29 29 28 28 28 27 27 27 26 26 26 26 26 26 26 26 26 26 26 27 28 28 29 30 31 31 32 32 33 33 33 32
38 38 38 38 38 38 38 36 35 32 30 27 24 22 22 21 20 19 18 18 17 17 17 18 19 19 20 21 21 22 23 24 25 27 29 30 31 32 32 32 32 32 32 32 32 32 31 31 30 30 29 28 28 27 27 26 26 26 25 25 25 25 25 25 24 24 24 24 24 24 25 25 26 27 27 28 29 29 30 31 31 31 31 31 31
38 38 38 39 38 38 38 37 35 32 30 27 24 22 21 21 20 20 20 20 18 16 16 17 18 18 18 19 20 20 20 21 22 23 25 27 28 29 30 30 30 30 30 31 31 31 30 30 29 29 28 27 27 26 26 25 25 25 24 24 24 24 23 23 22 22 22 23 23 23 24 24 25 25 26 27 28 28 29 29 30 29 29 29 29
39 39 39 39 39 38 38 36 34 32 30 28 25 23 22 21 20 19 19 20 20 18 16 16 16 17 18 18 19 19 19 19 19 20 21 23 25 26 27 28 29 29 29 29 29 29 29 29 28 28 27 27 27 26 26 25 25 25 24 24 23 22 22 21 21 21 21 21 22 22 23 23 23 24 25 26 27 28 28 28 28 27 27 27 27
40 39 39 39 39 39 38 37 35 32 30 28 25 23 22 22 21 20 19 19 19 19 18 17 16 16 16 17 18 19 19 19 19 19 19 20 21 23 24 26 27 27 28 28 28 28 28 27 27 27 27 27 26 26 25 25 24 24 23 22 21 21 20 20 19 19 20 20 20 21 21 22 22 23 24 25 26 26 26 26 26 25 25 25 25
40 40 40 39 39 39 38 37 35 32 30 28 26 24 22 22 21 20 19 18 18 19 19 18 17 16 16 16 17 18 18 19 19 19 19 19 19 20 21 23 24 25 26 27 27 27 27 27 27 26 26 26 26 25 25 24 23 22 21 21 20 19 19 18 18 18 19 19 19 19 19 20 21 22 22 23 23 24 24 24 23 23 23 23 22
40 40 40 40 40 39 38 37 35 33 30 28 26 24 22 22 21 20 19 19 18 18 18 18 18 17 16 16 16 16 17 18 18 19 19 19 19 19 19 20 22 23 24 25 26 26 26 26 26 26 26 25 25 24 24 23 22 21 20 20 19 19 18 18 18 18 18 18 18 18 18 18 19 19 20 20 21 21 21 21 21 21 21 21 21
Wind_Direction
293 294 294 294 295 293 288 284 280 276 272 267 261 260 258 252 252 251 245 241 240 238 241 241 239 237 235 236 236 235 236 235 232 232 232 232 232 231 230 231 231 231 232 233 234 235 237 240 242 246 249 250 253 254 255 257 260 262 262 263 264 263 260 257 255 255 255 255 255 257 256 251 246 244 245 245 244 243 244 246 247 246 246 249 254
295 296 296 295 295 293 288 287 287 283 278 271 263 260 257 251 249 248 244 239 235 234 237 239 238 237 234 234 232 229 231 233 232 232 233 232 232 232 232 233 234 234 234 236 237 238 239 241 242 246 250 251 252 254 256 256 257 259 260 262 261 260 259 256 255 255 256 257 258 258 256 251 246 244 244 243 243 244 244 246 247 248 249 252 255
296 296 295 295 297 296 293 292 293 289 282 274 267 262 257 251 247 244 243 239 232 230 233 236 238 239 236 234 230 226 228 232 232 233 235 234 234 235 235 236 236 236 235 236 237 238 240 242 242 246 250 252 251 253 254 254 254 255 257 256 253 253 256 255 254 255 257 258 258 256 253 249 244 241 242 243 244 246 247 249 250 252 254 256 258
294 292 293 294 297 298 297 297 297 293 285 276 270 265 258 251 246 242 241 238 230 228 232 235 237 240 239 235 231 227 228 232 233 234 236 237 237 237 237 237 238 237 236 235 236 237 239 241 243 245 249 251 251 250 250 251 252 252 253 252 249 250 254 254 254 255 256 257 256 253 249 245 243 242 243 246 249 251 252 253 254 255 257 258 259
291 291 292 295 297 298 300 301 300 297 290 278 271 264 256 249 243 238 237 233 228 228 232 233 235 239 240 237 232 229 230 233 236 238 239 239 239 238 238 238 238 237 236 235 236 237 239 241 243 245 247 249 248 246 247 249 250 250 250 249 248 250 251 252 252 253 254 255 254 251 249 246 247 248 250 252 254 255 256 256 256 257 258 260 260
291 291 293 295 297 298 300 303 302 302 297 282 271 261 251 242 232 226 227 226 225 228 230 229 233 238 239 237 234 231 231 233 238 242 242 240 239 239 239 239 238 238 237 237 237 239 240 243 245 245 246 247 245 244 245 246 248 249 249 248 248 249 250 252 253 252 253 253 253 251 250 251 253 255 256 257 258 258 257 256 257 258 259 261 262
293 294 295 296 298 299 301 304 304 306 304 289 273 259 244 233 222 217 219 222 225 229 229 227 231 237 239 237 235 233 233 235 239 242 242 241 241 240 241 240 240 240 240 240 240 241 242 243 244 245 244 244 243 243 244 244 245 246 248 248 248 248 249 252 255 255 254 252 252 252 252 253 256 257 258 258 258 258 257 257 258 260 261 262 262
294 295 295 297 299 300 302 303 304 307 309 298 277 255 235 223 216 215 219 221 225 229 229 228 230 235 239 239 236 236 236 237 240 241 242 242 242 241 241 240 241 241 242 243 242 241 241 241 242 243 243 243 243 243 244 243 243 244 246 247 248 247 248 253 259 261 259 254 252 253 254 254 254 255 255 255 255 256 258 260 261 261 261 261 260
294 295 296 297 298 300 301 302 303 306 309 305 284 252 233 223 215 214 219 223 227 230 230 229 230 234 238 239 237 238 239 239 240 241 241 242 241 240 239 239 240 242 242 242 242 242 241 241 241 240 241 242 243 243 243 241 241 242 245 246 247 247 248 252 256 256 256 257 256 255 255 255 255 254 253 254 255 257 259 260 261 261 261 260 260
292 294 295 296 297 299 301 302 303 303 306 308 293 253 236 234 225 216 219 226 232 235 233 231 230 233 237 238 237 238 240 240 240 240 241 240 240 240 240 240 240 241 242 243 243 243 242 242 241 240 240 242 243 243 243 241 241 242 245 247 248 249 249 249 248 248 252 258 261 260 259 257 255 255 255 255 256 258 260 261 262 262 262 263 264
287 290 293 294 295 297 298 299 301 302 303 307 302 266 235 232 228 221 222 227 231 233 235 234 231 232 235 236 236 238 240 240 240 240 240 238 238 240 242 243 242 241 242 244 245 245 244 243 242 242 241 242 244 244 244 242 242 243 245 247 248 250 249 246 246 251 255 258 262 263 262 260 257 256 256 257 258 259 261 263 265 266 266 267 267
284 286 288 290 291 292 295 296 297 299 300 302 304 289 243 226 225 226 228 229 227 229 233 235 233 232 233 234 235 236 237 237 238 240 239 237 237 240 243 245 245 244 244 244 245 245 245 244 243 243 243 244 245 246 245 243 241 241 243 245 245 247 248 246 249 254 257 259 262 262 261 261 260 258 258 259 261 263 264 266 267 268 269 269 269
282 283 285 286 286 286 289 291 291 294 296 296 300 298 272 238 228 229 233 234 231 229 232 234 233 233 233 233 234 235 235 235 237 239 239 238 238 240 244 247 248 248 247 245 245 244 245 244 243 243 244 245 246 247 246 243 241 241 243 245 246 247 248 250 253 255 258 261 262 261 260 261 261 262 263 265 265 266 267 268 269 270 271 271 272
280 282 283 284 284 283 284 285 285 287 290 291 292 294 288 271 249 235 234 236 235 232 231 232 234 235 235 233 234 236 236 235 237 239 239 239 240 242 244 247 250 251 250 248 246 245 245 245 244 244 244 245 245 246 245 244 243 244 247 250 252 251 251 251 252 254 257 259 259 258 259 261 263 264 266 266 267 268 269 270 271 272 273 273 273
278 280 281 282 282 283 282 281 280 280 282 285 286 287 286 281 272 257 243 237 236 236 234 233 234 236 238 238 237 237 237 238 239 238 237 240 245 247 246 247 249 251 252 251 249 247 247 246 245 245 244 244 244 244 244 243 244 246 250 252 253 253 252 251 251 251 251 252 257 260 260 261 263 264 265 266 267 269 270 271 272 272 273 273 274
278 278 279 280 280 281 281 280 277 275 275 277 279 281 281 279 276 271 262 250 242 238 237 236 236 236 238 241 241 240 240 241 239 236 237 245 252 254 250 248 247 249 251 252 251 249 248 247 246 245 244 244 243 243 243 243 244 246 249 250 251 251 252 251 251 249 244 240 245 254 259 262 264 265 265 267 268 269 270 271 272 273 274 274 274
277 277 278 279 279 279 279 279 277 274 271 271 272 274 276 276 274 271 267 262 255 248 243 241 239 238 237 239 241 242 243 244 243 243 247 253 256 254 251 249 247 247 248 251 252 251 249 248 247 246 245 244 244 243 243 244 244 246 248 250 251 252 252 251 250 248 246 242 245 253 259 262 263 264 265 266 268 269 270 271 272 273 274 275 275
277 277 278 278 279 278 277 277 277 274 271 268 266 267 269 271 272 270 267 265 262 259 255 250 246 242 239 239 240 242 244 246 247 248 251 253 252 248 247 248 249 249 248 249 251 252 251 249 248 248 247 246 246 245 245 245 246 246 248 249 251 252 253 252 251 250 249 249 251 255 258 260 260 261 263 264 266 267 269 272 273 273 273 274 274
277 277 277 277 278 277 276 274 274 274 272 269 265 263 263 265 267 267 266 265 263 262 261 259 255 250 245 242 242 242 243 244 246 248 249 249 248 246 244 245 249 251 251 250 250 252 253 252 251 250 250 249 248 247 247 247 247 248 249 250 251 252 253 253 253 253 252 251 250 249 251 255 257 259 261 263 266 268 269 270 271 273 273 272 271
276 276 276 276 275 275 274 273 271 271 271 270 267 263 260 260 262 263 263 264 263 262 261 260 260 258 254 249 246 244 243 243 245 249 250 248 246 245 245 245 247 250 252 252 251 251 252 253 253 252 252 251 250 249 248 248 248 249 249 251 252 253 254 254 254 254 254 253 251 248 248 251 255 258 261 264 267 269 269 267 266 268 270 269 269
274 275 275 275 273 272 271 270 269 268 268 268 268 266 262 258 258 259 260 260 261 262 261 260 260 260 259 256 251 247 244 243 243 248 251 250 247 246 248 250 249 248 250 252 251 249 249 251 253 254 254 253 253 251 250 250 249 249 249 250 251 252 254 255 255 255 255 255 254 253 252 254 256 259 261 264 265 267 267 267 266 267 269 270 271
271 272 273 274 273 272 270 268 266 266 265 264 265 266 265 261 258 256 257 258 258 259 260 260 259 259 258 258 255 251 247 244 244 247 252 254 252 250 250 251 251 250 250 251 251 249 247 247 249 251 251 252 253 254 253 253 252 251 251 250 251 252 253 254 255 255 256 255 255 255 255 256 259 261 263 264 265 266 267 268 268 269 270 271 272
269 269 270 271 272 272 270 268 266 264 263 262 261 262 263 262 260 257 255 256 256 256 257 258 258 258 258 257 256 253 250 249 249 251 256 260 259 254 249 248 250 252 253 254 254 253 250 245 244 246 247 249 252 254 255 255 254 254 254 253 254 254 254 254 255 255 255 256 256 257 257 259 261 264 266 266 267 267 268 269 270 270 271 272 273
271 270 269 269 270 270 270 269 268 266 264 261 260 259 260 260 259 257 255 255 255 255 255 255 256 257 257 257 256 254 253 254 255 256 260 263 260 252 246 245 246 248 251 254 255 255 251 247 245 247 248 250 252 254 255 255 256 257 258 258 258 258 258 258 258 258 258 258 258 258 260 262 265 267 268 269 270 270 271 271 271 271 271 271 272
273 272 271 270 270 270 269 269 269 268 266 263 260 259 258 259 259 257 255 254 254 254 255 255 255 255 256 256 256 256 256 258 259 260 264 265 257 248 244 243 242 241 245 249 251 251 251 250 250 251 252 252 253 254 255 257 258 260 261 261 260 260 260 260 261 261 261 261 262 263 264 265 267 268 268 269 270 271 272 272 271 270 270 271 272
272 270 270 269 270 270 270 269 269 269 268 266 262 259 257 257 258 258 256 254 252 252 253 254 255 256 256 257 257 258 259 260 261 261 263 263 257 251 245 242 240 240 242 244 247 250 253 253 254 254 255 255 255 255 257 259 261 263 264 264 265 264 264 264 264 263 263 264 264 264 265 265 267 268 269 270 270 271 273 274 273 272 271 271 272
273 271 269 268 268 269 269 270 269 269 269 268 266 262 258 256 256 257 258 257 253 251 250 251 253 254 256 258 259 259 260 261 262 260 257 256 257 254 247 241 241 243 243 244 249 253 257 258 257 257 257 257 257 257 258 260 262 264 266 267 268 269 270 270 268 267 267 267 266 264 264 266 268 271 272 273 273 272 273 273 273 273 272 271 272
273 272 271 270 268 268 268 268 268 268 267 267 266 264 262 259 256 256 257 258 256 254 251 249 249 250 253 255 258 259 259 260 261 259 254 252 254 253 247 242 242 244 246 247 250 254 257 259 260 260 261 261 259 257 256 257 258 260 262 263 264 265 267 269 269 269 269 268 267 267 267 268 270 273 274 274 274 273 273 273 273 273 273 273 273
274 272 271 270 269 268 268 268 268 267 266 264 262 261 261 261 259 258 256 256 257 256 255 252 249 249 250 252 254 256 257 257 257 255 253 250 250 251 250 246 243 243 243 245 247 250 253 255 256 256 257 257 256 255 255 255 256 257 259 261 261 261 261 263 266 268 270 270 270 270 270 270 271 272 273 273 274 274 275 275 275 274 274 274 274
282 278 275 272 269 268 267 266 266 267 266 265 263 260 259 259 258 258 257 256 256 256 257 256 254 251 250 250 251 254 256 256 254 253 252 249 247 249 252 250 246 243 241 242 244 246 248 250 250 249 249 251 252 254 256 257 258 259 261 262 263 263 262 260 261 263 266 268 268 269 269 269 268 269 270 271 273 275 276 275 274 274 274 275 277
291 288 285 281 276 272 269 267 265 265 264 264 264 262 260 259 257 257 256 256 255 255 256 258 258 256 254 252 252 253 254 255 254 254 254 252 249 250 253 253 250 246 245 245 246 246 245 244 245 245 247 249 251 253 257 260 262 262 262 262 263 265 266 265 264 263 262 262 262 265 267 267 265 266 268 271 272 273 274 274 274 274 276 276 276
296 294 291 289 285 281 277 273 269 266 264 263 263 263 261 260 259 257 256 255 255 255 254 255 257 258 258 257 255 254 254 254 254 254 254 254 253 252 254 256 255 253 251 250 249 246 244 242 242 244 247 249 251 253 259 263 263 261 259 259 258 259 261 262 262 263 263 263 263 265 265 264 264 267 269 271 272 273 273 273 274 274 274 274 273
299 297 295 292 290 286 283 279 275 271 268 266 264 263 262 261 260 259 257 255 254 254 254 253 254 255 256 256 255 255 254 254 253 252 252 252 252 253 255 257 257 257 256 253 250 247 245 245 245 248 250 252 253 257 261 264 263 259 258 258 258 258 259 259 259 259 261 262 263 263 263 265 267 269 271 271 272 272 272 272 272 272 272 272 273
306 303 299 296 292 288 285 282 279 275 272 269 266 264 263 262 260 259 258 256 254 253 253 253 253 253 254 254 253 253 252 252 253 253 253 253 252 252 253 254 255 256 256 255 254 252 251 251 251 253 254 255 256 257 259 260 260 258 257 258 259 261 261 260 257 256 257 260 262 264 265 266 266 265 267 269 270 270 270 270 270 270 271 273 276
316 314 310 305 300 294 289 284 280 277 274 271 268 266 264 263 261 260 258 257 255 253 252 251 252 252 253 253 253 253 253 253 253 253 253 254 254 253 253 253 254 255 255 256 256 256 256 256 255 256 257 257 258 258 257 257 258 258 258 259 260 261 261 260 258 258 259 262 265 267 266 264 262 263 265 267 268 267 268 269 270 272 274 277 279
328 326 324 320 315 309 301 293 287 282 277 273 270 267 265 263 262 261 259 257 256 254 252 251 250 251 251 252 252 253 254 254 253 251 250 250 251 251 252 252 254 255 256 257 259 260 260 260 260 260 260 260 261 261 262 262 261 261 261 261 262 262 263 262 262 262 262 263 264 264 262 261 261 262 264 266 266 267 269 271 274 276 278 281 283
336 336 335 334 331 326 319 311 302 295 288 281 276 272 268 266 264 262 260 258 256 255 253 252 250 249 250 251 251 252 252 253 252 251 249 248 249 250 251 251 252 253 255 257 259 260 261 261 262 262 263 263 264 264 265 266 265 264 262 261 261 261 260 259 259 258 258 257 257 258 258 259 261 263 265 266 268 271 273 275 278 281 283 286 289
342 342 341 341 340 337 332 325 317 310 303 296 288 281 275 271 268 266 264 261 258 256 254 253 251 250 249 249 251 252 252 252 252 252 250 249 250 251 252 253 254 255 256 258 259 259 259 258 259 260 260 260 261 261 261 260 259 258 257 257 256 256 256 256 255 255 256 256 257 258 260 262 264 266 269 271 273 276 278 281 283 286 288 291 292
343 344 344 344 343 342 340 335 327 319 313 308 301 294 287 280 275 271 268 266 263 259 256 254 253 252 251 250 251 252 253 254 254 254 253 252 252 252 253 255 256 257 258 259 259 260 259 258 257 257 257 257 258 258 258 258 258 257 257 257 257 257 257 258 258 259 260 261 262 264 266 268 270 272 274 276 279 281 283 286 288 290 292 294 295
344 344 344 345 344 343 342 339 334 326 319 314 310 304 298 292 286 280 275 271 268 265 261 258 256 254 253 252 252 253 254 255 255 256 256 256 255 255 255 255 256 257 258 259 259 260 260 260 260 259 258 257 257 257 257 257 258 259 260 261 262 262 263 263 264 265 265 267 268 270 271 273 275 277 279 281 283 285 287 289 291 293 295 296 297
343 344 344 344 343 342 341 339 337 331 323 316 312 310 306 302 297 291 285 279 275 271 267 263 259 257 256 255 254 254 255 256 257 257 257 258 258 258 258 257 257 257 257 257 257 258 258 258 259 259 259 259 259 258 258 258 258 259 260 261 262 263 264 265 266 268 269 271 272 274 276 277 279 281 283 285 286 288 290 292 293 294 295 295 296
343 343 343 343 342 341 339 338 336 333 327 319 312 310 309 307 304 300 294 289 283 278 273 269 265 262 259 258 257 256 255 256 257 258 258 259 259 259 259 260 259 259 258 258 257 256 256 256 256 257 258 258 259 259 259 260 260 260 260 261 262 263 264 265 267 268 270 271 273 275 277 279 281 282 284 286 287 289 290 291 292 293 294 295 296
342 342 342 342 341 339 338 336 335 333 329 323 315 310 310 310 308 305 300 295 289 284 279 275 272 268 264 261 259 258 257 256 257 257 258 259 259 259 259 259 260 260 260 260 259 258 258 257 257 257 258 258 259 259 260 260 261 262 263 263 264 265 266 267 268 270 271 273 274 276 277 279 281 282 284 286 287 289 289 291 292 294 295 297 297
341 341 341 341 339 338 336 335 334 332 329 324 317 312 311 312 312 310 305 299 294 288 283 279 276 273 270 266 263 260 258 256 255 255 256 257 258 258 258 258 259 259 260 260 260 260 260 260 259 259 259 259 260 261 262 262 263 265 266 266 267 268 269 270 271 272 273 275 276 277 279 280 282 284 285 287 288 290 292 294 296 297 298 298 298
341 340 340 340 339 337 336 335 334 332 330 324 317 312 310 312 314 314 311 306 300 293 286 281 277 274 272 269 266 263 260 258 255 254 253 254 254 255 256 256 256 257 258 259 259 260 260 261 261 261 261 261 261 261 262 262 263 264 265 266 267 268 269 269 271 272 273 274 276 278 280 282 284 286 287 289 292 294 297 298 298 298 298 298 298
342 341 340 339 338 337 336 335 334 333 330 326 318 311 307 309 312 315 316 314 309 302 294 286 280 275 272 269 268 265 263 260 257 254 252 251 251 251 252 253 253 253 254 255 256 257 258 259 259 260 260 260 260 260 260 260 261 261 261 262 263 263 264 266 268 270 272 274 277 280 282 284 287 289 292 294 296 298 298 298 298 298 298 298 298
342 342 341 340 339 338 336 335 334 332 330 326 320 312 306 305 307 311 314 315 315 311 304 295 288 281 275 270 267 265 263 262 260 257 254 252 250 249 248 249 249 250 250 251 252 253 254 255 256 256 256 256 256 256 257 257 257 258 258 259 260 262 264 266 268 269 272 275 278 281 284 287 290 293 295 297 297 297 297 297 297 297 297 297 297
343 342 341 340 340 339 338 336 334 333 330 326 320 313 306 302 302 304 308 312 314 316 314 307 297 289 281 275 270 266 263 262 261 260 258 255 252 250 248 247 247 247 247 247 248 249 250 250 250 251 251 251 251 252 252 252 253 254 255 257 259 260 262 264 266 268 272 276 280 284 287 291 293 295 296 296 296 296 295 295 296 296 296 297 297
342 342 342 341 340 340 339 338 336 334 331 327 321 314 307 303 301 301 302 306 310 314 315 315 309 299 289 281 275 270 266 263 261 261 261 259 255 252 250 248 247 246 246 245 245 246 246 246 246 246 246 246 246 246 247 247 248 250 251 253 255 257 259 261 264 268 273 277 282 286 290 292 294 295 294 294 294 295 295 295 296 296 296 297 298
342 342 342 342 341 341 341 339 338 336 333 329 324 317 309 305 303 302 303 304 307 310 312 315 316 312 301 290 280 273 268 264 262 260 260 259 257 254 251 248 247 246 245 245 244 244 244 243 243 243 243 242 242 242 242 243 244 246 248 250 252 253 255 259 263 268 274 279 284 288 290 291 292 293 293 294 295 295 296 296 296 297 297 298 299
342 342 342 342 342 342 342 340 339 337 334 331 327 321 313 307 304 303 304 304 305 306 308 312 316 316 311 301 290 280 271 265 261 259 258 257 255 253 250 248 246 245 244 244 243 242 242 242 241 241 241 240 239 239 238 239 241 243 245 247 249 251 254 258 264 270 275 279 283 286 288 289 291 293 295 296 297 298 298 299 299 299 299 300 301
Height
5755 5754 5753 5752 5751 5750 5748 5746 5743 5741 5739 5739 5740 5739 5740 5741 5742 5742 5742 5743 5745 5748 5750 5751 5753 5753 5753 5755 5757 5759 5760 5761 5762 5763 5764 5764 5765 5766 5767 5768 5768 5769 5770 5770 5771 5771 5772 5773 5774 5774 5775 5776 5777 5777 5778 5779 5779 5780 5780 5780 5781 5782 5783 5784 5784 5785 5786 5786 5787 5788 5789 5789 5790 5791 5791 5792 5793 5793 5794 5795 5796 5796 5796 5797 5797
5752 5750 5749 5747 5746 5746 5744 5742 5740 5737 5735 5734 5735 5735 5736 5737 5737 5738 5739 5740 5741 5744 5745 5747 5749 5749 5750 5751 5753 5754 5756 5758 5759 5761 5761 5762 5763 5763 5764 5765 5766 5767 5767 5768 5768 5769 5769 5770 5770 5771 5772 5772 5773 5774 5776 5776 5777 5777 5777 5778 5779 5780 5780 5781 5782 5782 5783 5784 5785 5786 5786 5787 5787 5788 5789 5790 5790 5791 5792 5792 5793 5793 5794 5794 5794
5748 5747 5745 5743 5742 5741 5740 5738 5736 5734 5731 5730 5730 5730 5732 5732 5733 5734 5734 5735 5737 5739 5741 5743 5745 5747 5748 5749 5749 5750 5752 5754 5757 5758 5759 5760 5760 5761 5762 5763 5763 5764 5765 5765 5765 5766 5766 5767 5767 5768 5769 5769 5771 5772 5773 5774 5774 5775 5775 5776 5777 5777 5778 5778 5779 5779 5780 5781 5782 5783 5784 5784 5785 5786 5787 5787 5788 5788 5789 5790 5790 5790 5791 5791 5791
5745 5744 5742 5740 5739 5737 5736 5735 5732 5730 5728 5727 5726 5726 5727 5728 5729 5730 5730 5731 5733 5734 5737 5739 5742 5744 5746 5746 5747 5747 5748 5751 5753 5755 5757 5757 5758 5758 5759 5760 5761 5761 5762 5762 5762 5763 5763 5764 5765 5766 5766 5767 5768 5770 5770 5771 5772 5772 5773 5773 5774 5775 5775 5776 5776 5777 5778 5779 5779 5780 5781 5782 5783 5783 5784 5785 5785 5786 5786 5787 5787 5788 5788 5788 5788
5742 5741 5740 5738 5736 5734 5733 5731 5729 5726 5725 5723 5722 5722 5723 5724 5725 5726 5726 5727 5729 5730 5733 5736 5739 5742 5744 5744 5744 5745 5745 5748 5750 5752 5753 5754 5755 5756 5756 5757 5758 5758 5759 5759 5759 5760 5761 5761 5762 5763 5764 5764 5766 5767 5768 5768 5769 5769 5770 5771 5771 5772 5773 5773 5774 5775 5776 5776 5777 5778 5779 5780 5780 5781 5781 5782 5782 5783 5784 5784 5784 5785 5785 5785 5785
5739 5738 5737 5735 5733 5731 5729 5728 5726 5723 5722 5720 5719 5719 5719 5719 5720 5722 5723 5724 5726 5727 5729 5732 5736 5739 5741 5742 5742 5742 5743 5745 5747 5749 5750 5751 5752 5753 5753 5754 5755 5755 5756 5756 5756 5757 5758 5759 5759 5760 5761 5761 5763 5764 5765 5765 5766 5767 5767 5768 5769 5770 5770 5771 5771 5772 5773 5774 5775 5775 5776 5777 5778 5778 5779 5779 5779 5780 5780 5781 5781 5781 5782 5782 5782
5737 5735 5734 5733 5731 5728 5726 5724 5722 5721 5719 5717 5715 5715 5715 5716 5717 5719 5720 5722 5723 5725 5726 5729 5732 5735 5738 5739 5740 5740 5741 5743 5745 5746 5747 5748 5749 5750 5751 5751 5752 5753 5753 5753 5754 5754 5755 5756 5756 5757 5758 5759 5760 5761 5761 5762 5763 5764 5764 5765 5766 5767 5768 5768 5769 5770 5771 5771 5772 5772 5773 5774 5775 5775 5775 5776 5776 5777 5777 5777 5778 5778 5778 5779 5779
5734 5733 5732 5730 5728 5726 5724 5722 5720 5718 5717 5715 5713 5713 5713 5713 5714 5716 5718 5720 5721 5722 5724 5726 5729 5732 5734 5736 5737 5737 5739 5740 5742 5743 5744 5745 5747 5747 5748 5749 5749 5750 5751 5751 5751 5751 5752 5752 5753 5754 5755 5756 5757 5757 5758 5759 5760 5760 5761 5762 5763 5765 5766 5766 5766 5766 5767 5768 5769 5769 5770 5771 5771 5772 5772 5772 5773 5773 5774 5774 5774 5775 5775 5775 5775
5732 5731 5729 5728 5726 5724 5722 5720 5718 5717 5715 5713 5711 5711 5712 5712 5713 5714 5716 5718 5719 5720 5721 5723 5725 5728 5731 5732 5733 5734 5735 5737 5739 5740 5741 5743 5744 5745 5745 5746 5747 5747 5748 5748 5748 5749 5749 5749 5750 5751 5752 5753 5753 5754 5755 5756 5756 5757 5758 5759 5760 5761 5763 5764 5764 5763 5762 5763 5765 5766 5767 5768 5768 5769 5769 5769 5770 5770 5771 5771 5771 5771 5771 5771 5770
5729 5728 5727 5726 5724 5722 5721 5718 5716 5715 5713 5712 5710 5709 5711 5711 5712 5713 5715 5716 5717 5718 5719 5720 5722 5724 5726 5728 5730 5731 5733 5734 5736 5737 5739 5740 5741 5742 5743 5743 5744 5744 5745 5745 5746 5746 5746 5746 5747 5748 5749 5750 5750 5751 5752 5753 5754 5754 5754 5755 5757 5758 5759 5761 5761 5760 5759 5761 5762 5763 5764 5764 5765 5765 5765 5766 5767 5767 5767 5767 5767 5768 5768 5767 5767
5726 5725 5724 5723 5722 5720 5719 5717 5715 5713 5712 5710 5709 5708 5709 5709 5710 5711 5713 5714 5715 5715 5716 5718 5719 5720 5722 5725 5727 5728 5730 5731 5733 5734 5736 5737 5738 5739 5740 5741 5741 5741 5742 5743 5743 5743 5744 5744 5744 5745 5746 5746 5747 5748 5749 5750 5751 5751 5751 5752 5753 5754 5756 5757 5757 5756 5757 5758 5758 5759 5760 5760 5761 5762 5762 5762 5763 5764 5764 5764 5764 5764 5764 5764 5763
5722 5722 5721 5720 5719 5718 5717 5715 5713 5711 5710 5709 5707 5706 5706 5707 5708 5709 5710 5711 5712 5713 5714 5715 5716 5717 5719 5721 5723 5725 5727 5728 5729 5731 5732 5733 5734 5735 5737 5738 5738 5738 5739 5739 5740 5740 5741 5741 5742 5742 5743 5743 5744 5745 5745 5746 5747 5748 5748 5749 5750 5751 5752 5753 5753 5754 5754 5754 5754 5755 5755 5756 5757 5758 5758 5758 5759 5759 5760 5760 5760 5760 5760 5760 5759
5718 5718 5717 5717 5716 5715 5714 5713 5711 5710 5709 5707 5706 5705 5704 5704 5705 5706 5708 5708 5709 5710 5711 5712 5713 5714 5715 5717 5719 5721 5723 5724 5726 5727 5729 5729 5730 5731 5733 5734 5734 5735 5735 5736 5736 5737 5737 5738 5738 5739 5739 5740 5741 5741 5742 5743 5744 5745 5745 5746 5746 5747 5748 5749 5750 5751 5752 5751 5750 5750 5752 5752 5753 5753 5754 5754 5754 5754 5755 5755 5755 5755 5756 5755 5755
5714 5713 5713 5713 5712 5712 5711 5710 5709 5708 5707 5706 5704 5704 5703 5702 5702 5703 5704 5705 5706 5707 5708 5709 5710 5711 5712 5714 5715 5717 5719 5720 5722 5723 5725 5726 5727 5727 5728 5729 5730 5731 5732 5732 5732 5733 5733 5734 5735 5736 5736 5737 5738 5738 5739 5740 5741 5742 5742 5743 5743 5744 5745 5746 5746 5747 5748 5748 5747 5747 5748 5749 5749 5749 5750 5750 5750 5750 5750 5750 5750 5750 5751 5750 5751
5710 5709 5709 5709 5709 5708 5707 5707 5706 5705 5704 5704 5702 5701 5701 5700 5700 5700 5700 5701 5703 5704 5705 5706 5707 5708 5710 5711 5712 5713 5714 5716 5717 5719 5720 5722 5722 5723 5724 5725 5726 5727 5728 5729 5729 5729 5729 5730 5731 5732 5733 5733 5734 5735 5735 5736 5737 5738 5738 5738 5739 5739 5740 5741 5741 5742 5744 5745 5743 5743 5744 5744 5745 5745 5745 5745 5745 5745 5745 5745 5745 5745 5745 5745 5746
5706 5706 5705 5705 5705 5704 5703 5703 5703 5702 5701 5701 5700 5699 5698 5698 5698 5698 5698 5698 5699 5700 5701 5702 5703 5705 5707 5707 5708 5709 5710 5711 5713 5714 5715 5716 5717 5719 5720 5720 5721 5722 5723 5725 5725 5725 5725 5726 5727 5728 5728 5729 5730 5730 5731 5732 5733 5733 5733 5733 5734 5735 5736 5737 5738 5738 5739 5740 5741 5740 5739 5739 5740 5740 5740 5741 5740 5740 5741 5740 5740 5740 5740 5740 5740
5701 5701 5701 5701 5700 5700 5700 5699 5698 5698 5698 5698 5697 5696 5696 5695 5695 5695 5695 5695 5696 5696 5697 5698 5698 5700 5702 5702 5703 5705 5706 5707 5708 5709 5710 5711 5712 5714 5714 5715 5716 5717 5718 5720 5721 5721 5721 5722 5723 5723 5724 5725 5725 5726 5727 5728 5729 5729 5729 5729 5730 5731 5732 5733 5734 5734 5735 5737 5737 5736 5735 5735 5735 5735 5735 5735 5735 5735 5735 5735 5735 5735 5734 5734 5734
5696 5696 5696 5696 5696 5696 5696 5695 5694 5694 5694 5694 5694 5693 5693 5692 5692 5692 5691 5692 5692 5693 5693 5694 5694 5695 5696 5697 5698 5700 5702 5702 5703 5704 5705 5706 5707 5708 5709 5710 5711 5712 5713 5715 5716 5717 5717 5718 5718 5719 5719 5720 5721 5722 5723 5724 5724 5725 5725 5725 5726 5727 5728 5729 5730 5730 5731 5733 5733 5732 5731 5731 5730 5730 5731 5730 5729 5730 5730 5730 5730 5730 5730 5729 5729
5691 5690 5691 5691 5691 5691 5691 5691 5690 5689 5689 5689 5689 5690 5689 5689 5689 5688 5688 5688 5688 5689 5690 5690 5690 5691 5692 5693 5694 5695 5696 5697 5698 5699 5700 5701 5702 5703 5704 5705 5706 5707 5708 5709 5711 5712 5712 5713 5714 5715 5715 5716 5716 5717 5718 5718 5719 5720 5721 5721 5722 5723 5723 5725 5725 5726 5727 5728 5728 5727 5726 5725 5725 5725 5725 5725 5725 5725 5726 5726 5725 5724 5725 5725 5724
5685 5685 5685 5685 5685 5686 5686 5686 5686 5685 5685 5685 5685 5685 5685 5685 5685 5684 5684 5684 5684 5685 5685 5686 5686 5687 5687 5688 5688 5690 5691 5692 5693 5694 5695 5696 5697 5698 5699 5700 5701 5702 5703 5704 5705 5706 5707 5708 5709 5710 5710 5711 5711 5712 5712 5713 5714 5715 5716 5717 5717 5718 5719 5719 5720 5721 5721 5723 5723 5723 5722 5721 5721 5721 5720 5720 5720 5720 5721 5722 5721 5719 5720 5720 5719
5680 5680 5679 5679 5679 5679 5680 5680 5681 5681 5680 5680 5680 5680 5680 5680 5680 5680 5680 5680 5680 5680 5681 5681 5682 5682 5683 5683 5683 5684 5685 5687 5688 5689 5690 5691 5692 5693 5694 5695 5695 5696 5697 5698 5699 5700 5701 5703 5704 5704 5705 5706 5706 5707 5707 5707 5708 5709 5710 5711 5712 5712 5713 5714 5714 5715 5715 5716 5717 5717 5717 5717 5716 5716 5716 5715 5715 5715 5714 5715 5715 5714 5714 5714 5713
5675 5674 5674 5673 5673 5673 5673 5674 5675 5675 5675 5675 5675 5674 5675 5675 5675 5675 5675 5675 5675 5675 5676 5676 5677 5678 5678 5679 5678 5679 5680 5681 5682 5683 5685 5686 5687 5688 5689 5690 5690 5691 5692 5692 5693 5694 5696 5698 5699 5698 5699 5700 5701 5701 5702 5702 5703 5703 5704 5705 5705 5706 5707 5708 5708 5709 5709 5709 5710 5711 5711 5711 5711 5711 5710 5710 5709 5709 5709 5708 5708 5708 5707 5707 5706
5670 5669 5668 5668 5667 5667 5667 5667 5668 5669 5669 5669 5669 5669 5669 5669 5670 5670 5670 5670 5670 5671 5671 5671 5672 5672 5673 5674 5674 5674 5674 5674 5675 5677 5678 5679 5680 5682 5683 5684 5684 5684 5685 5686 5686 5687 5690 5692 5692 5692 5692 5693 5694 5695 5696 5697 5697 5698 5699 5700 5700 5701 5702 5702 5702 5702 5703 5703 5704 5704 5705 5705 5705 5705 5704 5703 5703 5702 5702 5702 5702 5701 5701 5700 5700
5664 5663 5663 5662 5662 5661 5661 5661 5661 5662 5662 5663 5663 5663 5664 5664 5664 5664 5664 5665 5665 5665 5665 5666 5666 5667 5668 5668 5668 5668 5668 5668 5669 5671 5671 5672 5673 5674 5675 5676 5677 5678 5678 5678 5679 5680 5682 5684 5685 5686 5687 5688 5689 5690 5691 5692 5692 5692 5693 5695 5696 5696 5696 5696 5696 5697 5697 5698 5698 5699 5699 5699 5699 5699 5698 5697 5697 5696 5696 5696 5696 5695 5695 5694 5693
5658 5657 5657 5656 5656 5655 5655 5655 5654 5655 5655 5656 5657 5657 5658 5658 5658 5658 5659 5659 5659 5659 5660 5660 5661 5661 5661 5662 5662 5662 5663 5663 5664 5664 5665 5665 5666 5668 5669 5670 5671 5672 5672 5672 5672 5674 5676 5677 5679 5680 5681 5682 5684 5685 5685 5686 5687 5687 5688 5689 5690 5690 5690 5691 5691 5691 5691 5692 5692 5692 5693 5693 5692 5692 5692 5691 5691 5690 5690 5689 5689 5689 5688 5688 5687
5652 5651 5651 5651 5650 5650 5649 5649 5648 5648 5648 5649 5650 5651 5651 5652 5652 5652 5652 5653 5653 5653 5654 5654 5654 5655 5655 5655 5655 5656 5656 5657 5658 5659 5659 5659 5660 5662 5663 5664 5665 5665 5666 5667 5667 5669 5671 5672 5673 5674 5676 5677 5678 5679 5680 5681 5682 5682 5683 5683 5684 5684 5684 5684 5685 5685 5685 5685 5686 5686 5686 5685 5685 5685 5685 5685 5684 5683 5683 5682 5682 5682 5681 5681 5680
5646 5646 5645 5645 5645 5644 5644 5643 5643 5642 5642 5642 5643 5644 5645 5645 5645 5645 5646 5646 5647 5647 5648 5648 5648 5649 5649 5649 5649 5650 5650 5650 5652 5653 5654 5654 5655 5656 5657 5658 5659 5661 5662 5662 5663 5664 5665 5666 5667 5669 5670 5671 5672 5673 5674 5675 5676 5677 5677 5677 5678 5678 5677 5677 5678 5678 5679 5679 5679 5679 5679 5679 5679 5678 5678 5678 5677 5677 5676 5675 5675 5674 5674 5674 5673
5641 5640 5639 5639 5639 5639 5638 5637 5637 5636 5636 5637 5637 5637 5638 5638 5639 5639 5639 5639 5640 5640 5641 5642 5642 5642 5643 5643 5643 5643 5644 5645 5645 5647 5648 5649 5650 5651 5651 5653 5654 5655 5657 5658 5658 5659 5660 5661 5662 5663 5664 5665 5666 5667 5669 5669 5670 5670 5671 5671 5671 5672 5671 5670 5669 5670 5671 5672 5672 5672 5672 5672 5672 5671 5671 5670 5669 5669 5668 5668 5667 5667 5667 5667 5666
5635 5634 5633 5634 5634 5633 5632 5632 5631 5631 5631 5631 5631 5631 5631 5631 5632 5632 5632 5633 5633 5634 5634 5635 5636 5636 5637 5637 5637 5637 5638 5639 5640 5640 5642 5643 5644 5645 5646 5647 5648 5649 5650 5651 5653 5654 5655 5656 5656 5657 5658 5658 5659 5660 5661 5662 5663 5663 5663 5664 5664 5665 5665 5665 5663 5663 5664 5665 5665 5665 5665 5665 5664 5664 5663 5662 5662 5661 5661 5660 5660 5659 5659 5658 5658
5629 5628 5627 5627 5627 5626 5626 5625 5625 5624 5624 5624 5624 5625 5625 5625 5625 5625 5625 5626 5627 5627 5628 5628 5629 5630 5630 5631 5631 5631 5632 5633 5634 5635 5636 5637 5638 5639 5640 5641 5641 5642 5643 5645 5646 5647 5648 5649 5650 5651 5651 5652 5652 5653 5654 5655 5656 5656 5656 5656 5656 5656 5658 5659 5659 5658 5658 5658 5659 5659 5659 5658 5658 5657 5656 5655 5655 5654 5654 5653 5653 5652 5652 5651 5650
5623 5622 5621 5621 5620 5620 5619 5618 5618 5617 5617 5617 5617 5618 5619 5619 5618 5618 5619 5619 5620 5621 5622 5622 5622 5623 5624 5624 5625 5626 5626 5627 5628 5629 5630 5631 5632 5632 5633 5634 5635 5636 5637 5638 5639 5640 5642 5642 5643 5644 5644 5645 5646 5647 5648 5648 5648 5649 5649 5649 5649 5649 5649 5650 5651 5652 5652 5652 5652 5652 5652 5651 5651 5650 5649 5649 5648 5647 5647 5647 5646 5646 5645 5644 5643
5619 5617 5616 5615 5614 5613 5612 5611 5611 5610 5610 5610 5610 5610 5611 5612 5611 5611 5612 5613 5614 5615 5615 5616 5617 5617 5617 5618 5619 5619 5620 5621 5622 5623 5624 5625 5625 5626 5627 5628 5629 5630 5631 5632 5633 5634 5635 5635 5636 5637 5638 5639 5640 5640 5641 5641 5642 5642 5642 5642 5642 5642 5642 5643 5643 5643 5644 5644 5645 5645 5644 5644 5643 5643 5642 5642 5641 5641 5641 5641 5640 5640 5639 5638 5637
5614 5613 5611 5610 5609 5607 5606 5605 5604 5603 5602 5602 5602 5603 5603 5604 5604 5604 5605 5606 5607 5608 5609 5610 5610 5611 5611 5612 5613 5614 5614 5615 5616 5617 5618 5619 5620 5620 5621 5622 5622 5623 5624 5625 5626 5627 5628 5629 5630 5631 5632 5633 5633 5634 5634 5634 5634 5634 5635 5635 5635 5636 5636 5636 5636 5636 5636 5637 5637 5637 5637 5637 5636 5636 5636 5635 5635 5635 5635 5634 5634 5633 5632 5631 5630
5610 5608 5607 5605 5603 5602 5600 5598 5597 5596 5595 5595 5595 5595 5595 5595 5596 5597 5598 5599 5600 5601 5602 5603 5603 5604 5604 5605 5606 5607 5608 5609 5610 5611 5612 5613 5614 5615 5615 5616 5616 5617 5618 5619 5620 5621 5622 5623 5623 5624 5625 5625 5626 5626 5626 5626 5627 5627 5627 5628 5628 5628 5629 5629 5629 5629 5629 5630 5630 5630 5630 5630 5630 5629 5629 5629 5629 5629 5628 5627 5627 5626 5625 5624 5623
5606 5604 5602 5600 5598 5596 5594 5593 5591 5590 5589 5588 5587 5587 5587 5588 5588 5589 5590 5591 5592 5594 5595 5596 5597 5597 5598 5599 5600 5601 5602 5603 5604 5605 5606 5607 5608 5609 5609 5610 5611 5611 5612 5612 5613 5614 5615 5615 5616 5617 5617 5617 5618 5618 5618 5619 5619 5620 5620 5621 5621 5622 5622 5622 5622 5623 5623 5623 5623 5623 5623 5623 5623 5623 5622 5622 5622 5621 5620 5620 5619 5618 5617 5616 5616
5603 5600 5598 5595 5593 5591 5589 5587 5585 5584 5582 5582 5581 5580 5580 5580 5581 5581 5582 5583 5585 5586 5587 5589 5590 5591 5591 5592 5593 5594 5595 5596 5597 5599 5600 5601 5602 5603 5604 5604 5605 5606 5606 5607 5607 5608 5609 5609 5609 5610 5610 5611 5611 5611 5611 5612 5613 5613 5614 5614 5615 5615 5615 5616 5616 5616 5616 5617 5617 5617 5617 5617 5616 5616 5615 5615 5614 5614 5613 5613 5612 5611 5610 5609 5608
5600 5598 5595 5592 5589 5587 5584 5582 5580 5579 5577 5576 5575 5574 5574 5574 5574 5574 5575 5575 5577 5578 5579 5581 5583 5584 5585 5585 5586 5587 5588 5589 5590 5591 5593 5594 5595 5597 5598 5598 5599 5600 5600 5601 5602 5602 5603 5603 5603 5604 5604 5604 5605 5605 5606 5606 5607 5607 5608 5608 5609 5609 5610 5610 5610 5610 5610 5610 5610 5610 5610 5609 5609 5608 5608 5608 5608 5607 5607 5606 5605 5605 5604 5602 5601
5598 5596 5593 5590 5587 5584 5582 5579 5577 5575 5573 5571 5570 5569 5569 5568 5568 5568 5568 5568 5569 5571 5572 5573 5575 5576 5578 5579 5579 5580 5581 5582 5583 5584 5585 5587 5588 5590 5591 5592 5593 5593 5594 5595 5596 5597 5598 5598 5598 5598 5599 5599 5600 5600 5601 5601 5602 5602 5603 5603 5603 5604 5604 5604 5604 5604 5604 5604 5604 5603 5603 5602 5602 5602 5602 5602 5601 5601 5600 5600 5599 5598 5597 5596 5595
5596 5594 5591 5588 5585 5582 5579 5577 5574 5572 5570 5568 5566 5565 5564 5563 5562 5562 5562 5562 5563 5564 5565 5566 5567 5568 5570 5572 5573 5573 5574 5575 5576 5577 5578 5579 5581 5583 5584 5585 5586 5587 5587 5588 5590 5591 5591 5592 5592 5593 5593 5594 5595 5595 5596 5596 5597 5597 5597 5597 5598 5598 5598 5598 5598 5598 5598 5597 5597 5597 5597 5596 5596 5596 5596 5595 5595 5594 5594 5593 5593 5592 5591 5590 5588
5594 5591 5589 5586 5583 5581 5578 5575 5572 5570 5567 5565 5563 5561 5560 5559 5558 5557 5557 5557 5557 5557 5558 5559 5560 5561 5563 5564 5566 5567 5568 5568 5569 5570 5571 5572 5574 5575 5577 5578 5579 5580 5581 5582 5583 5584 5585 5585 5586 5586 5587 5588 5589 5589 5590 5590 5591 5591 5591 5591 5591 5591 5591 5591 5591 5591 5591 5591 5591 5591 5591 5590 5590 5590 5590 5589 5589 5589 5588 5588 5587 5586 5585 5583 5582
5592 5589 5586 5584 5581 5578 5576 5573 5570 5568 5565 5563 5560 5558 5557 5556 5555 5554 5553 5552 5552 5552 5552 5553 5554 5555 5556 5557 5559 5561 5562 5562 5563 5564 5565 5566 5567 5569 5570 5571 5572 5573 5574 5575 5576 5577 5578 5579 5579 5580 5581 5581 5582 5583 5584 5584 5584 5585 5585 5585 5585 5586 5586 5585 5585 5585 5585 5585 5585 5585 5585 5585 5585 5585 5584 5584 5584 5583 5583 5582 5581 5580 5579 5578 5577
5590 5587 5584 5581 5579 5576 5573 5570 5568 5565 5563 5561 5558 5556 5554 5553 5552 5550 5550 5549 5548 5548 5548 5548 5548 5549 5550 5550 5552 5554 5555 5556 5557 5558 5559 5560 5561 5563 5564 5564 5565 5566 5568 5569 5570 5571 5571 5572 5573 5574 5574 5575 5576 5577 5577 5578 5578 5578 5579 5579 5580 5580 5580 5580 5580 5580 5580 5581 5581 5581 5581 5581 5580 5580 5579 5579 5579 5578 5578 5577 5576 5575 5574 5572 5570
5587 5585 5582 5579 5576 5573 5570 5567 5565 5562 5560 5557 5555 5553 5552 5550 5549 5548 5547 5546 5545 5544 5544 5544 5544 5544 5544 5545 5546 5547 5549 5550 5551 5552 5553 5554 5555 5557 5558 5559 5560 5561 5562 5563 5564 5565 5565 5566 5567 5568 5568 5569 5570 5571 5571 5571 5572 5572 5573 5573 5574 5574 5574 5575 5575 5575 5576 5576 5576 5576 5576 5576 5576 5575 5575 5574 5574 5573 5572 5571 5570 5569 5567 5565 5563
5585 5582 5579 5576 5573 5570 5567 5564 5562 5559 5556 5554 5552 5551 5549 5548 5547 5545 5544 5543 5542 5541 5541 5540 5540 5540 5540 5540 5541 5542 5543 5544 5545 5546 5547 5548 5549 5551 5552 5553 5554 5555 5556 5557 5558 5559 5560 5561 5561 5562 5563 5564 5564 5565 5565 5566 5566 5567 5567 5568 5568 5569 5569 5569 5570 5570 5571 5571 5571 5571 5571 5571 5571 5570 5569 5569 5568 5568 5566 5565 5563 5562 5560 5559 5557
5583 5580 5577 5574 5571 5568 5564 5562 5559 5556 5553 5551 5549 5548 5546 5545 5544 5543 5542 5540 5539 5539 5538 5537 5537 5537 5537 5537 5537 5537 5538 5539 5540 5541 5542 5543 5544 5545 5546 5547 5548 5549 5550 5551 5552 5553 5554 5555 5556 5557 5558 5558 5559 5560 5561 5561 5562 5562 5563 5563 5564 5564 5564 5565 5565 5566 5566 5566 5566 5566 5566 5566 5565 5565 5564 5563 5562 5561 5560 5558 5557 5555 5555 5554 5552
5581 5578 5575 5571 5568 5565 5561 5558 5556 5553 5551 5548 5546 5545 5544 5543 5542 5541 5539 5538 5537 5536 5535 5534 5534 5534 5533 5533 5533 5533 5534 5534 5535 5536 5537 5538 5539 5540 5541 5542 5543 5544 5545 5546 5547 5548 5549 5550 5551 5552 5553 5554 5554 5555 5556 5557 5557 5558 5559 5559 5560 5560 5560 5561 5561 5561 5562 5562 5562 5561 5561 5561 5560 5559 5558 5557 5556 5555 5554 5553 5552 5551 5550 5549 5548
5579 5576 5572 5569 5566 5562 5559 5555 5553 5550 5548 5545 5544 5542 5541 5540 5540 5539 5537 5536 5535 5534 5533 5532 5531 5531 5531 5530 5530 5530 5530 5531 5531 5532 5532 5533 5534 5535 5536 5537 5538 5539 5540 5541 5542 5543 5544 5545 5546 5547 5548 5549 5550 5550 5551 5552 5553 5554 5554 5555 5555 5556 5556 5556 5557 5557 5557 5557 5557 5557 5556 5556 5555 5554 5553 5552 5551 5551 5550 5549 5548 5547 5546 5544 5543
5577 5573 5570 5567 5563 5560 5556 5553 5550 5547 5545 5543 5541 5540 5538 5537 5537 5537 5535 5534 5533 5532 5531 5530 5529 5528 5528 5528 5527 5527 5527 5527 5528 5528 5529 5529 5530 5531 5532 5533 5534 5534 5535 5536 5537 5538 5539 5540 5541 5542 5543 5544 5545 5546 5547 5548 5549 5549 5550 5551 5551 5551 5552 5552 5553 5553 5553 5553 5553 5552 5552 5551 5551 5550 5549 5548 5547 5547 5546 5545 5544 5543 5542 5540 5539
5574 5571 5567 5564 5561 5557 5554 5551 5547 5545 5542 5540 5538 5537 5536 5535 5534 5534 5533 5532 5531 5530 5529 5528 5527 5526 5526 5525 5525 5525 5525 5525 5525 5525 5525 5526 5527 5527 5528 5529 5530 5530 5531 5532 5533 5534 5535 5536 5537 5538 5539 5540 5541 5542 5543 5544 5545 5545 5546 5546 5547 5548 5548 5549 5549 5549 5549 5549 5548 5548 5548 5547 5547 5546 5545 5545 5544 5543 5542 5541 5540 5539 5538 5537 5536
5572 5569 5565 5562 5558 5554 5551 5548 5545 5542 5540 5538 5536 5534 5533 5532 5531 5531 5530 5530 5529 5528 5527 5526 5525 5524 5524 5523 5522 5522 5522 5522 5522 5522 5523 5523 5523 5524 5524 5525 5526 5526 5527 5528 5529 5530 5531 5532 5533 5534 5535 5536 5537 5538 5539 5540 5541 5541 5542 5543 5543 5544 5544 5545 5545 5545 5545 5545 5544 5544 5544 5543 5543 5543 5542 5541 5540 5539 5538 5537 5536 5535 5534 5533 5532
5570 5567 5563 5559 5556 5552 5549 5545 5542 5540 5537 5535 5533 5532 5531 5529 5529 5528 5528 5527 5526 5526 5525 5524 5523 5522 5521 5520 5520 5519 5519 5519 5519 5519 5520 5520 5520 5521 5521 5522 5522 5523 5524 5524 5525 5526 5527 5528 5529 5530 5531 5532 5533 5534 5535 5536 5537 5538 5539 5539 5540 5540 5541 5541 5541 5541 5541 5541 5541 5541 5541 5540 5540 5539 5539 5538 5537 5536 5535 5534 5533 5532 5531 5530 5529